Location: La Prunerie
(46.5271°N, 0.6390°E)
Time: 10:25:32
(UTC+00:00)

Daily predictions for brighter satellites

Satellite Brightness Start Highest point End
(mag) Time Altitude Azimuth Time Altitude Azimuth Time Altitude Azimuth
CZ-4B R/B 3.3 19:12:07 10° SSE 19:17:40 65° ENE 19:23:11 10° N
Cosmos 1821 Rocket 4.1 19:17:33 10° N 19:23:38 58° ENE 19:29:37 10° SSE
USA 186 1.7 19:21:11 10° SSE 19:24:09 55° ENE 19:27:06 10° N
SL-27 R/B 2.0 19:21:20 10° NNW 19:24:12 56° ENE 19:27:01 10° SSE
Cosmos 2218 Rocket 4.2 19:17:48 10° N 19:24:15 86° W 19:30:35 10° S
BREEZE-M R/B 2.8 19:21:59 10° WNW 19:24:43 41° N 19:27:03 10° ENE
Cosmos 1825 3.8 19:22:23 10° NNW 19:25:33 34° W 19:28:42 10° SSW
SPOT 1/Viking Rocket 3.6 19:21:00 10° SSE 19:26:13 85° ENE 19:31:28 10° NNW
USA 267 3.4 19:21:43 10° NE 19:28:19 88° NW 19:34:52 10° WSW
Okean O Rocket 1.9 19:26:07 10° SSE 19:30:19 51° ENE 19:34:35 10° N
Feng Yun 1-1 Rocket 4.3 19:25:45 10° SSE 19:31:15 72° ENE 19:36:57 10° N
Cosmos 1782 Rocket 4.0 19:29:33 10° SSW 19:33:55 68° W 19:38:20 10° N
Cosmos 1486 Rocket 4.1 19:29:58 10° NNW 19:35:09 61° ENE 19:40:17 10° SE
CZ-4 R/B 1.9 19:31:30 10° S 19:35:23 60° W 19:39:12 10° NNW
Cosmos 1536 Rocket 4.4 19:38:06 10° N 19:42:06 32° ENE 19:45:49 11° SE
SJ 16-02 3.2 19:39:26 10° NW 19:43:15 30° W 19:47:01 10° SSW
Resurs 01 Rocket 1.6 19:40:39 10° SSE 19:45:02 74° ENE 19:49:29 10° N
DELTA 2 DEB (DPAF) 3.9 19:42:37 10° NNE 19:46:52 75° ESE 19:51:05 10° S
CENTAUR R/B 4.5 19:42:11 10° NW 19:48:38 28° NNE 19:55:57 10° E
NOSS 3-1 (A) 3.0 19:45:39 10° SSW 19:50:27 63° ESE 19:56:13 10° NE
Cosmos 1300 Rocket 4.4 19:48:04 10° SSW 19:52:21 54° WNW 19:56:42 10° N
ERS-1 Rocket 4.3 19:51:26 13° ESE 19:54:32 23° ENE 19:58:24 10° NNE
Tiangong -0.5 19:54:33 10° SSW 19:56:44 18° SSE 19:57:17 17° SE
USA 229 DEB 4.2 19:54:20 10° S 19:59:33 30° ESE 20:05:08 10° NE
USA 229 4.2 19:54:27 10° S 19:59:39 30° ESE 20:05:14 10° NE
Cosmos 1934 Rocket 4.3 19:55:07 10° N 20:01:05 49° ENE 20:06:25 13° SSE
Cosmos 2151 Rocket 3.7 19:57:39 10° S 20:01:53 51° E 20:06:12 10° NNE
USA 234 3.4 19:58:35 13° SE 20:04:28 73° SW 20:11:01 10° NW
USA 281 3.2 19:59:02 12° SE 20:05:15 75° ENE 20:11:50 10° NNW
ATLAS CENTAUR R/B 3.6 20:05:41 10° N 20:07:33 13° NNE 20:09:27 10° ENE
Cosmos 2227 Rocket 3.5 20:04:12 10° N 20:08:55 26° NE 20:12:21 15° E
NOSS 3-1 (C) 4.1 20:06:09 10° WSW 20:11:02 51° NW 20:16:57 10° NE
Iridium 2 3.5 20:10:41 10° N 20:13:30 39° E 20:14:16 31° ESE
SL-4 R/B 2.7 20:12:10 10° WNW 20:15:36 39° N 20:17:57 17° ENE
Cosmos 371 Rocket 3.2 20:12:55 10° NNW 20:17:45 83° ENE 20:21:07 20° SSE
Landsat 4 4.4 20:17:01 26° ESE 20:18:08 33° ENE 20:21:19 10° N
MetOp-B 4.3 20:15:38 19° SE 20:19:24 57° ENE 20:24:40 10° N
Cosmos 1697 Rocket 3.8 20:18:57 21° ESE 20:19:40 21° E 20:23:49 10° NE
CSL-04 Rocket 4.3 20:14:53 10° S 20:20:16 56° W 20:25:39 10° NNW
Cosmos 304 Rocket 3.7 20:16:47 10° NNW 20:21:35 73° ENE 20:24:31 23° SSE
Cosmos 1777 Rocket 4.0 20:16:53 10° NNW 20:22:12 78° ENE 20:25:46 21° SSE
Okean 2 Rocket 3.0 20:19:26 10° S 20:23:55 81° E 20:28:26 10° N
ATLAS 3B R/B 3.0 20:17:09 10° SW 20:24:16 78° NW 20:31:56 10° NE
COSMOS 2455 3.4 20:18:39 10° NNW 20:24:29 47° NE 20:27:59 23° ESE
Alouette 2 Rocket 4.4 20:17:30 10° N 20:25:00 68° ENE 20:28:14 22° SSE
SPOT 5 3.1 20:26:04 22° SSE 20:29:34 66° ENE 20:34:46 10° N
IRS-1A Rocket 4.4 20:28:47 22° SSE 20:32:40 65° ENE 20:38:29 10° N
Cosmos 405 Rocket 4.0 20:33:26 24° ENE 20:33:26 24° ENE 20:35:57 10° NE
BlueWalker 3 1.8 20:33:25 10° SW 20:37:14 85° SSE 20:40:37 13° ENE
CZ-4C R/B 3.4 20:30:45 10° NNW 20:37:26 49° NE 20:42:37 22° ESE
Cosmos 2297 Rocket 2.2 20:32:05 10° NNW 20:37:44 66° ENE 20:40:35 29° SE
Spot 2 Rocket 4.1 20:36:25 29° ESE 20:38:23 41° ENE 20:43:06 10° N
Cosmos 1503 Rocket 4.4 20:34:29 10° NNW 20:39:49 63° WSW 20:43:36 19° S
Terra 2.2 20:40:08 32° ESE 20:41:47 46° ENE 20:46:18 10° N
Cosmos 1656 3.5 20:36:58 10° SSW 20:42:31 76° ESE 20:48:03 10° NNE
Cosmos 1354 Rocket 4.1 20:37:27 10° NNW 20:42:48 77° WSW 20:45:57 25° SSE
Cosmos 1455 Rocket 3.6 20:46:45 36° ESE 20:47:04 36° E 20:51:06 10° NNE
Okean 1 Rocket 3.0 20:44:00 18° S 20:47:15 87° E 20:51:46 10° N
Sich 1 Rocket 4.2 20:43:19 10° SSW 20:47:39 57° WNW 20:52:04 10° N
ATLAS 5 CENTAUR R/B 3.7 20:45:24 10° W 20:48:09 22° NW 20:51:11 10° NNE
Iridium 4 Rocket 3.7 20:44:01 18° S 20:48:14 83° E 20:54:05 10° N
USA 245 3.9 20:46:54 33° SE 20:49:06 65° ENE 20:53:27 10° N
Cosmos 332 Rocket 3.9 20:45:26 10° NNW 20:50:16 64° ENE 20:51:53 40° SE
Okean-O 3.5 20:48:36 16° SSW 20:51:52 45° W 20:56:07 10° NNW
Cosmos 2219 4.3 20:47:29 10° N 20:52:28 31° NE 20:54:33 24° E
CZ-4C R/B 4.3 20:53:14 10° N 20:56:26 38° WNW 20:59:35 10° SW
Ariane Rocket 3.1 20:56:30 40° SE 20:58:09 61° ENE 21:03:08 10° N
Cosmos 1763 Rocket 3.4 20:57:45 36° SSE 20:59:35 56° ESE 21:04:37 10° NNE
Genesis I 3.7 20:56:40 10° NW 21:00:09 44° WSW 21:00:43 40° SSW
Cosmos 1437 Rocket 3.0 20:56:25 10° N 21:00:15 49° ENE 21:00:22 49° E
Cosmos 2263 Rocket 3.5 20:59:32 10° N 21:04:14 26° NE 21:06:06 22° ENE
Cosmos 44 3.4 20:58:57 10° SSW 21:04:22 84° SE 21:09:43 10° NE
NOSS 8 (F) 4.3 21:02:49 10° NW 21:06:00 87° NE 21:06:04 85° ESE
Okean O Rocket 4.1 21:03:59 10° SW 21:06:54 17° W 21:09:51 10° NW
ARGOS Delta rocket 4.3 21:08:36 43° ESE 21:09:57 55° ENE 21:15:18 10° N
Cosmos 990 Rocket 3.9 21:05:21 10° NNW 21:10:33 78° ENE 21:11:53 50° SE
USA 267 4.4 21:04:50 10° NE 21:10:57 43° NNW 21:17:02 10° W
Cosmos 1605 Rocket 4.1 21:09:33 10° N 21:15:58 79° W 21:19:09 32° S
Aureole 1 Rocket 3.5 21:13:57 10° NNW 21:15:56 35° N 21:15:56 35° N
Cosmos 540 Rocket 3.4 21:18:44 57° SE 21:19:19 61° ESE 21:24:22 10° NNE
Resurs 01 Rocket 4.4 21:20:12 10° WSW 21:22:01 12° W 21:23:51 10° WNW
Cosmos 1153 Rocket 4.4 21:17:42 10° N 21:24:03 75° E 21:25:55 47° SSE
MOS 1 Rocket 3.2 21:25:22 59° ENE 21:25:22 59° ENE 21:29:38 10° N
Cosmos 2058 3.2 21:22:59 10° N 21:26:27 53° NE 21:26:27 53° NE
Cosmos 1626 Rocket 4.3 21:25:25 10° N 21:29:06 39° ENE 21:29:06 39° ENE
Cosmos 372 Rocket 4.3 21:26:32 10° NNW 21:31:38 49° ENE 21:32:09 47° E
Cosmos 468 Rocket 3.8 21:31:31 65° SSE 21:32:09 74° ESE 21:37:22 10° NNE
ERS-1 Rocket 3.5 21:31:22 38° SSW 21:32:57 53° W 21:37:52 10° NNW
SPOT 3 Rocket 3.6 21:35:46 53° SSW 21:36:54 71° WSW 21:42:07 10° NNW
Cosmos 1802 Rocket 4.4 21:32:08 10° N 21:38:08 44° ENE 21:38:59 42° E
CENTAUR R/B 3.4 21:32:52 10° NW 21:40:56 64° NE 21:44:48 37° ESE
Cosmos 841 Rocket 4.4 21:43:35 35° ENE 21:43:35 35° ENE 21:47:00 10° NE
Landsat 5 3.7 21:39:34 10° NNE 21:43:13 65° NNE 21:43:13 65° NNE
Cosmos 2016 Rocket 4.5 21:39:37 10° N 21:45:24 42° ENE 21:45:55 41° E
ATLAS CENTAUR R/B 1.9 21:42:10 10° NNW 21:45:04 50° NNW 21:45:04 50° NNW
Cosmos 1544 Rocket 4.4 21:49:27 42° NE 21:49:27 42° NE 21:52:29 10° NNE
Intercosmos 25 4.0 21:44:31 10° N 21:48:13 50° NNE 21:48:13 50° NNE
USA 229 DEB 4.0 21:43:52 10° SW 21:49:58 61° NW 21:56:46 10° NE
USA 229 4.0 21:43:57 10° SW 21:50:04 61° NW 21:56:51 10° NE
Cosmos 1727 Rocket 3.9 21:49:08 49° SSW 21:51:01 85° W 21:57:19 10° N
H-2A R/B 4.4 21:54:16 19° NE 21:54:16 19° NE 21:55:57 10° NNE
Cosmos 2100 Rocket 3.9 21:46:51 10° N 21:53:16 79° E 21:54:16 64° SSE
Cosmos 2227 Rocket 2.3 21:47:47 10° NNW 21:53:24 63° WSW 21:54:10 57° SSW
Cosmos 1980 Rocket 2.5 21:55:14 49° ENE 21:55:14 49° ENE 21:59:47 10° NE
SL-4 R/B 3.6 21:51:06 10° WNW 21:52:47 26° WNW 21:52:47 26° WNW
Cosmos 292 Rocket 3.8 21:52:28 10° NNW 21:56:52 75° N 21:56:52 75° N
Cosmos 1000 Rocket 4.3 22:01:36 70° SSE 22:02:21 83° E 22:08:31 10° N
Cosmos 1697 Rocket 3.0 22:00:32 33° SW 22:03:05 65° WNW 22:08:46 10° NNE
Cosmos 1937 Rocket 3.4 21:58:32 10° NNW 22:03:46 79° NE 22:03:46 79° NE
Okean 1-7 Rocket 4.3 22:00:37 10° N 22:04:09 48° NNE 22:04:09 48° NNE
Cosmos 2123 Rocket 4.0 22:05:46 61° E 22:05:54 61° E 22:12:08 10° NNE
COSMOS 2455 3.7 22:04:50 10° NW 22:10:17 36° WSW 22:11:08 35° SW
Cosmos 1602 Rocket 4.5 22:08:11 10° N 22:11:18 44° NNE 22:11:18 44° NNE
Cosmos 2228 4.3 22:14:51 35° NNE 22:14:51 35° NNE 22:17:21 10° NNE
Cosmos 1758 Rocket 4.3 22:08:44 10° N 22:12:06 50° N 22:12:06 50° N
BlueWalker 3 3.7 22:12:17 10° WNW 22:15:06 31° NW 22:15:06 31° NW
ARIANE 5 R/B 3.5 22:17:17 45° NNE 22:17:17 45° NNE 22:20:37 10° N
Cosmos 1898 Rocket 3.8 22:11:22 10° NNW 22:16:18 59° W 22:16:18 59° W
Terra 3.6 22:18:50 21° WSW 22:19:35 22° W 22:23:17 10° NW
Cosmos 2297 Rocket 4.0 22:17:09 10° NW 22:21:13 21° W 22:22:24 19° WSW
CZ-4C R/B 3.3 22:19:05 10° NW 22:26:15 56° WSW 22:27:43 50° SSW
Cosmos 2369 3.9 22:27:49 61° NE 22:27:49 61° NE 22:32:32 10° NNE
SL-08 R/B 4.4 22:26:09 10° N 22:32:32 79° E 22:32:34 79° E
Meteor 2-8 Rocket 4.3 22:27:31 10° N 22:33:42 86° ENE 22:33:42 86° ENE
ALOS 2 4.4 22:35:57 25° NE 22:35:57 25° NE 22:38:28 10° N
Cosmos 1725 Rocket 3.8 22:28:53 10° N 22:35:07 87° W 22:35:10 87° SW
Cosmos 2233 Rocket 4.0 22:29:20 10° N 22:35:19 65° ENE 22:35:19 65° ENE
Cosmos 1459 Rocket 4.2 22:30:11 10° NNW 22:36:06 56° W 22:36:35 55° WSW
Cosmos 2219 3.7 22:31:24 10° NW 22:36:27 49° W 22:36:27 49° W
Cosmos 2061 Rocket 3.9 22:35:32 10° N 22:42:01 81° E 22:42:01 81° E
Cosmos 2360 Rocket 4.4 22:51:06 14° ENE 22:51:06 14° ENE 22:52:13 10° ENE
Cosmos 2263 Rocket 2.6 22:43:02 10° NNW 22:47:47 54° WNW 22:47:47 54° WNW
Cosmos 2082 4.3 22:49:41 10° NW 22:54:20 49° WNW 22:54:20 49° WNW
Cosmos 2333 Rocket 4.3 23:03:47 15° ENE 23:03:47 15° ENE 23:05:14 10° NE
Cosmos 2322 Rocket 3.9 23:03:59 22° ENE 23:03:59 22° ENE 23:06:21 10° NE
NOSS 3-2 (A) 4.0 22:59:16 10° NW 23:06:45 72° SW 23:07:20 70° SSW
SL-16 R/B 3.1 23:22:57 42° NE 23:22:57 42° NE 23:26:46 10° NNE
Cosmos 1844 4.3 23:18:21 10° NNW 23:23:28 52° NE 23:23:28 52° NE
USA 238 DEB 4.1 23:24:17 10° NW 23:31:33 64° NE 23:32:58 55° E
USA 238 4.2 23:24:23 10° NW 23:31:38 64° NE 23:33:05 54° E
CENTAUR R/B 3.7 23:23:47 10° NW 23:31:42 44° WSW 23:31:56 44° WSW
Cosmos 1125 Rocket 4.3 23:27:57 10° NNW 23:31:49 48° N 23:31:49 48° N
Cosmos 1844 Rocket 3.2 23:27:37 10° NNW 23:32:08 55° N 23:32:08 55° N
Cosmos 1980 Rocket 3.8 23:36:55 24° WNW 23:38:36 28° NW 23:43:26 10° N
Cosmos 2278 4.2 23:44:41 56° NNW 23:44:41 56° NNW 23:49:24 10° NNE
Timation 2 Rocket 4.2 23:41:54 10° NNW 23:48:19 66° NE 23:48:19 66° NE
